EW6438 Weather Reports


Display with metric or nautical units.
time (UTC)temp
F
wind
direction
speed
MPH
gust
MPH
rain 1hr
in
rain 24hr
in
rain mn
in
humidity
%
barometer
mb
20190216104558 20 305 3.0 10.0 0.00 0.00 0.00 92 1010.4
20190216103043 20 11 3.0 12.0 0.00 0.00 0.00 91 1010.4
20190216101545 20 252 3.0 9.0 0.00 0.00 0.00 91 1010.2
20190216100045 20 297 4.0 15.0 0.00 0.00 0.00 92 1010.1
20190216094528 20 292 3.0 8.0 0.00 0.00 0.00 92 1009.9
20190216093016 20 248 2.0 9.0 0.00 0.00 0.00 92 1009.6
20190216091512 20 295 2.0 9.0 0.00 0.00 0.00 92 1009.4
20190216090012 20 319 3.0 7.0 0.00 0.00 0.00 92 1009.3
20190216084519 20 333 4.0 8.0 0.00 0.00 0.00 91 1009.4
20190216083155 20 258 4.0 10.0 0.00 0.00 0.00 91 1009.2
20190216081710 20 307 3.0 14.0 0.00 0.00 0.00 91 1009.1
20190216080225 20 297 2.0 12.0 0.00 0.00 0.00 91 1009.2
20190216074654 20 281 3.0 9.0 0.00 0.00 0.00 90 1009.3
20190216073144 20 118 4.0 11.0 0.00 0.00 0.00 90 1009.2
20190216071624 20 272 3.0 13.0 0.00 0.00 0.00 90 1009.3
20190216070206 20 301 3.0 9.0 0.00 0.00 0.00 90 1009.2
20190216064640 20 295 5.0 12.0 0.00 0.00 0.00 90 1009.2
20190216063121 20 304 4.0 13.0 0.00 0.00 0.00 90 1009.3
20190216054610 20 284 3.0 9.0 0.00 0.00 0.00 89 1009.0
20190216053119 21 300 3.0 9.0 0.00 0.00 0.00 88 1009.1
20190216051651 21 229 3.0 10.0 0.00 0.00 0.00 87 1008.9
20190216050053 21 279 5.0 13.0 0.00 0.00 0.00 86 1008.8
20190216044604 21 354 4.0 15.0 0.00 0.00 0.00 85 1008.8
20190216043039 21 326 5.0 16.0 0.00 0.00 0.00 85 1008.8
20190216041558 21 304 5.0 15.0 0.00 0.00 0.00 87 1008.5
20190216040042 22 325 5.0 12.0 0.00 0.00 0.00 87 1008.3
20190216034544 22 356 3.0 9.0 0.00 0.00 0.00 87 1007.9
20190216033024 22 257 5.0 16.0 0.00 0.00 0.00 87 1007.7
20190216031533 22 205 5.0 15.0 0.00 0.00 0.00 88 1007.7
20190216030027 23 328 8.0 17.0 0.00 0.00 0.00 89 1007.7
20190216024532 23 295 2.0 8.0 0.00 0.00 0.00 89 1007.8
20190216023012 23 306 4.0 17.0 0.00 0.00 0.00 87 1007.8
20190216021524 24 300 6.0 12.0 0.00 0.00 0.00 88 1007.7
20190216020007 24 323 4.0 14.0 0.00 0.00 0.00 86 1007.5
20190216014508 24 339 2.0 16.0 0.00 0.00 0.00 84 1007.3
20190216013005 24 293 4.0 12.0 0.00 0.00 0.00 84 1007.0
20190216011503 24 300 6.0 13.0 0.00 0.00 0.00 83 1007.1
20190216010151 24 231 7.0 18.0 0.00 0.00 0.00 83 1006.9
20190216004829 24 327 4.0 16.0 0.00 0.00 0.00 84 1006.8
20190216003210 24 316 8.0 17.0 0.00 0.00 0.00 84 1006.6
20190216001731 25 298 6.0 16.0 0.00 0.00 0.00 83 1006.5
20190216000205 25 283 3.0 14.0 0.00 0.00 0.00 83 1006.2
20190215233109 26 299 7.0 16.0 0.00 0.00 0.00 80 1006.0
20190215231642 26 190 5.0 16.0 0.00 0.00 0.00 81 1005.5
20190215230135 27 261 8.0 23.0 0.00 0.00 0.00 81 1005.3
20190215224622 27 281 7.0 17.0 0.00 0.00 0.00 82 1004.8
20190215223136 28 316 5.0 15.0 0.00 0.00 0.00 85 1004.5
20190215221722 28 297 5.0 13.0 0.00 0.00 0.00 89 1004.5
20190215220125 28 283 3.0 11.0 0.00 0.00 0.00 92 1004.3
20190215214608 28 278 5.0 13.0 0.00 0.00 0.00 92 1004.6
20190215213132 28 195 5.0 17.0 0.00 0.00 0.00 92 1003.7
20190215211620 29 297 4.0 13.0 0.00 0.00 0.00 94 1003.9
20190215210110 29 304 4.0 16.0 0.00 0.00 0.00 94 1003.7
20190215204538 30 302 6.0 15.0 0.00 0.00 0.00 95 1003.4
20190215203052 31 311 5.0 13.0 0.00 0.00 0.00 95 1003.1
20190215201551 32 279 4.0 14.0 0.00 0.00 0.00 94 1002.9
20190215200038 33 346 3.0 9.0 0.00 0.00 0.00 92 1002.5
20190215194536 35 217 2.0 7.0 0.00 0.00 0.00 90 1002.3
20190215193023 37 190 3.0 9.0 0.00 0.00 0.00 85 1001.9
20190215191527 38 214 2.0 10.0 0.00 0.00 0.00 81 1001.7
20190215190020 38 224 2.0 9.0 0.00 0.00 0.00 81 1001.8
20190215184613 37 162 1.0 10.0 0.00 0.00 0.00 83 1001.9
20190215183058 36 123 1.0 6.0 0.00 0.00 0.00 86 1002.1
20190215181546 36 70 2.0 11.0 0.00 0.00 0.00 88 1002.2
20190215180057 34 158 2.0 9.0 0.00 0.00 0.00 91 1002.6
20190215174530 34 97 2.0 9.0 0.00 0.00 0.00 92 1002.8
20190215173022 33 54 2.0 10.0 0.00 0.00 0.00 93 1003.1
20190215171549 33 83 3.0 8.0 0.00 0.00 0.00 93 1003.5
20190215170027 33 201 3.0 7.0 0.00 0.00 0.00 93 1003.9
20190215164529 33 136 2.0 8.0 0.00 0.00 0.00 94 1004.3
20190215163023 33 63 4.0 12.0 0.00 0.00 0.00 94 1004.6
20190215161520 33 167 3.0 9.0 0.00 0.00 0.00 94 1005.0
20190215160028 32 47 3.0 11.0 0.00 0.00 0.00 94 1005.1
20190215154520 33 217 5.0 10.0 0.00 0.00 0.00 92 1005.2
20190215153010 34 160 6.0 14.0 0.00 0.00 0.00 88 1005.5
20190215151508 35 209 5.0 17.0 0.00 0.00 0.00 82 1005.7
20190215150208 35 103 3.0 14.0 0.00 0.00 0.00 81 1005.6
20190215144650 34 214 3.0 17.0 0.00 0.00 0.00 82 1005.7
20190215143256 33 136 6.0 11.0 0.00 0.00 0.00 84 1006.1
20190215141649 33 189 4.0 13.0 0.00 0.00 0.00 84 1006.3
20190215140128 33 148 4.0 17.0 0.00 0.00 0.00 83 1006.7
20190215134649 33 118 3.0 12.0 0.00 0.00 0.00 82 1006.8
20190215133141 34 216 4.0 11.0 0.00 0.00 0.00 81 1006.9
20190215131628 35 75 4.0 14.0 0.00 0.00 0.00 77 1007.1
20190215130135 34 181 3.0 9.0 0.00 0.00 0.00 79 1007.5
20190215124645 33 102 4.0 12.0 0.00 0.00 0.00 76 1007.6
20190215123125 33 143 5.0 12.0 0.00 0.00 0.00 75 1007.6
20190215121624 33 123 2.0 7.0 0.00 0.00 0.00 76 1007.6
20190215120046 33 146 4.0 13.0 0.00 0.00 0.00 77 1007.8
20190215114602 32 207 1.0 13.0 0.00 0.00 0.00 81 1008.0
20190215113146 31 88 4.0 11.0 0.00 0.00 0.00 82 1008.3
20190215111538 31 141 4.0 9.0 0.00 0.00 0.00 83 1008.8
20190215110105 31 116 3.0 10.0 0.00 0.00 0.00 81 1008.8